sat.trackr.live / text

‹ back to catalog

UNKNOWN

NORAD 87624

UNKNOWN UNKNOWN UNKNOWN

§ Identity

Operator
Country
Launch date
Launch site
Launch vehicle
Mass (kg)
RCS (m²)

External: N2YO · Heavens-Above

§ Orbital elements

Epoch: 2026-09-18T15:07:57.435168Z

Period
97.77 min
Inclination
98.7069°
Eccentricity
0.0094664
Mean motion
14.72878839 rev/d
Perigee alt
585.3 km
Apogee alt
718.4 km
Semi-major
7,030.0 km
B*
4.9121e-4
RAAN
223.1091°
Arg perigee
91.1429°
Mean anomaly
270.0623°
Rev number
62,144

§ Raw data

UNKNOWN1 87624U          26261.63052587  .00003316  00000+0  49121-3 0  99922 87624  98.7069 223.1091 0094664  91.1429 270.0623 14.72878839621445

JSON: /api/v1/satellites/87624 · /tle

For live sub-satellite position, see the globe view (requires WebGL).

§ Visibility from observer

Set your observer location to see the next 7 days of passes ≥ 10°. The values pass through the URL so the page stays shareable.

No JS? Fill the form by hand. The geolocation button needs JavaScript.